Time,TemperatureF,DewpointF,PressureIn,WindDirection,WindDirectionDegrees,WindSpeedMPH,WindSpeedGustMPH,Humidity,HourlyPrecipIn,Conditions,Clouds,dailyrainin,SoftwareType,DateUTC
2013-10-22 00:02:00,45.2,35.3,30.14,East,79,0.0,0.0,68,0.00,,CLR,0.00,VWS V14.01,2013-10-22 06:02:00,
2013-10-22 00:07:00,45.2,35.3,30.15,East,79,0.0,0.0,68,0.00,,CLR,0.00,VWS V14.01,2013-10-22 06:07:00,
2013-10-22 00:12:00,45.4,35.5,30.15,East,79,0.0,0.0,68,0.00,,CLR,0.00,VWS V14.01,2013-10-22 06:12:00,
2013-10-22 00:17:00,45.4,35.5,30.15,East,79,0.0,0.0,68,0.00,,CLR,0.00,VWS V14.01,2013-10-22 06:17:00,
2013-10-22 00:23:00,45.2,35.3,30.14,East,79,0.0,0.0,68,0.00,,CLR,0.00,VWS V14.01,2013-10-22 06:23:00,
2013-10-22 00:28:00,45.1,35.2,30.14,East,79,0.0,0.0,68,0.00,,CLR,0.00,VWS V14.01,2013-10-22 06:28:00,
2013-10-22 00:33:00,44.9,35.0,30.14,East,79,0.0,0.0,68,0.00,,CLR,0.00,VWS V14.01,2013-10-22 06:33:00,
2013-10-22 00:38:00,44.8,34.9,30.14,East,79,0.0,0.0,68,0.00,,CLR,0.00,VWS V14.01,2013-10-22 06:38:00,
2013-10-22 00:43:00,44.6,35.1,30.14,East,79,0.0,0.0,69,0.00,,CLR,0.00,VWS V14.01,2013-10-22 06:43:00,
2013-10-22 00:48:00,44.5,35.0,30.14,East,79,0.0,0.0,69,0.00,,CLR,0.00,VWS V14.01,2013-10-22 06:48:00,
2013-10-22 00:53:00,44.3,34.8,30.14,East,79,0.0,0.0,69,0.00,,CLR,0.00,VWS V14.01,2013-10-22 06:53:00,
2013-10-22 00:58:00,44.1,34.6,30.14,East,79,0.0,0.0,69,0.00,,CLR,0.00,VWS V14.01,2013-10-22 06:58:00,
2013-10-22 01:03:00,43.9,34.4,30.14,East,79,0.0,0.0,69,0.00,,CLR,0.00,VWS V14.01,2013-10-22 07:03:00,
2013-10-22 01:08:00,43.9,34.8,30.14,East,79,0.0,0.0,70,0.00,,CLR,0.00,VWS V14.01,2013-10-22 07:08:00,
2013-10-22 01:13:00,43.9,34.8,30.14,East,79,0.0,0.0,70,0.00,,CLR,0.00,VWS V14.01,2013-10-22 07:13:00,
2013-10-22 01:18:00,43.8,34.7,30.14,East,79,0.0,0.0,70,0.00,,CLR,0.00,VWS V14.01,2013-10-22 07:18:00,
2013-10-22 01:23:00,43.8,35.0,30.14,East,79,0.0,0.0,71,0.00,,CLR,0.00,VWS V14.01,2013-10-22 07:23:00,
2013-10-22 01:29:00,43.6,34.8,30.14,East,79,0.0,0.0,71,0.00,,CLR,0.00,VWS V14.01,2013-10-22 07:29:00,
2013-10-22 01:34:00,43.5,34.7,30.14,East,79,0.0,0.0,71,0.00,,CLR,0.00,VWS V14.01,2013-10-22 07:34:00,
2013-10-22 01:39:00,43.3,34.5,30.14,East,79,0.0,0.0,71,0.00,,CLR,0.00,VWS V14.01,2013-10-22 07:39:00,
2013-10-22 01:44:00,43.2,34.5,30.14,East,79,0.0,0.0,71,0.00,,CLR,0.00,VWS V14.01,2013-10-22 07:44:00,
2013-10-22 01:49:00,43.1,34.7,30.14,East,79,0.0,0.0,72,0.00,,CLR,0.00,VWS V14.01,2013-10-22 07:49:00,
2013-10-22 01:54:00,42.9,34.5,30.14,East,79,0.0,0.0,72,0.00,,CLR,0.00,VWS V14.01,2013-10-22 07:54:00,
2013-10-22 01:59:00,42.9,34.5,30.14,East,79,0.0,0.0,72,0.00,,CLR,0.00,VWS V14.01,2013-10-22 07:59:00,
2013-10-22 02:04:00,43.1,34.7,30.14,East,79,0.0,0.0,72,0.00,,CLR,0.00,VWS V14.01,2013-10-22 08:04:00,
2013-10-22 02:09:00,43.1,34.7,30.14,East,79,0.0,0.0,72,0.00,,CLR,0.00,VWS V14.01,2013-10-22 08:09:00,
2013-10-22 02:14:00,42.9,34.2,30.14,East,79,0.0,0.0,71,0.00,,CLR,0.00,VWS V14.01,2013-10-22 08:14:00,
2013-10-22 02:19:00,42.8,34.1,30.14,East,79,0.0,0.0,71,0.00,,CLR,0.00,VWS V14.01,2013-10-22 08:19:00,
2013-10-22 02:24:00,42.8,34.4,30.14,East,79,0.0,0.0,72,0.00,,CLR,0.00,VWS V14.01,2013-10-22 08:24:00,
2013-10-22 02:29:00,42.6,33.9,30.14,East,79,0.0,0.0,71,0.00,,CLR,0.00,VWS V14.01,2013-10-22 08:29:00,
2013-10-22 02:34:00,42.5,33.8,30.14,East,79,0.0,0.0,71,0.00,,CLR,0.00,VWS V14.01,2013-10-22 08:34:00,
2013-10-22 02:39:00,42.2,33.5,30.14,East,79,0.0,0.0,71,0.00,,CLR,0.00,VWS V14.01,2013-10-22 08:39:00,
2013-10-22 02:45:00,41.9,33.5,30.14,East,79,0.0,1.0,72,0.00,,CLR,0.00,VWS V14.01,2013-10-22 08:45:00,
2013-10-22 02:50:00,41.5,33.5,30.14,East,79,0.0,0.0,73,0.00,,CLR,0.00,VWS V14.01,2013-10-22 08:50:00,
2013-10-22 02:55:00,41.3,33.3,30.14,East,79,0.0,0.0,73,0.00,,CLR,0.00,VWS V14.01,2013-10-22 08:55:00,
2013-10-22 03:00:00,41.3,33.3,30.14,East,79,0.0,0.0,73,0.00,,CLR,0.00,VWS V14.01,2013-10-22 09:00:00,
2013-10-22 03:05:00,41.2,32.9,30.15,East,79,0.0,0.0,72,0.00,,CLR,0.00,VWS V14.01,2013-10-22 09:05:00,
2013-10-22 03:10:00,41.1,33.1,30.15,East,79,0.0,0.0,73,0.00,,CLR,0.00,VWS V14.01,2013-10-22 09:10:00,
2013-10-22 03:15:00,41.1,33.5,30.15,East,79,0.0,1.0,74,0.00,,CLR,0.00,VWS V14.01,2013-10-22 09:15:00,
2013-10-22 03:20:00,40.9,32.9,30.15,East,79,0.0,0.0,73,0.00,,CLR,0.00,VWS V14.01,2013-10-22 09:20:00,
2013-10-22 03:25:00,40.9,33.3,30.15,East,79,0.0,0.0,74,0.00,,CLR,0.00,VWS V14.01,2013-10-22 09:25:00,
2013-10-22 03:30:00,40.8,33.2,30.15,East,79,0.0,0.0,74,0.00,,CLR,0.00,VWS V14.01,2013-10-22 09:30:00,
2013-10-22 03:36:00,40.8,33.2,30.15,East,79,0.0,0.0,74,0.00,,CLR,0.00,VWS V14.01,2013-10-22 09:36:00,
2013-10-22 03:41:00,40.8,33.2,30.15,East,79,0.0,0.0,74,0.00,,CLR,0.00,VWS V14.01,2013-10-22 09:41:00,
2013-10-22 03:46:00,40.6,32.6,30.15,East,79,0.0,0.0,73,0.00,,CLR,0.00,VWS V14.01,2013-10-22 09:46:00,
2013-10-22 03:51:00,40.5,32.9,30.15,East,79,0.0,0.0,74,0.00,,CLR,0.00,VWS V14.01,2013-10-22 09:51:00,
2013-10-22 03:56:00,40.3,32.7,30.15,East,79,0.0,0.0,74,0.00,,CLR,0.00,VWS V14.01,2013-10-22 09:56:00,
2013-10-22 04:01:00,40.3,32.7,30.15,East,79,0.0,0.0,74,0.00,,CLR,0.00,VWS V14.01,2013-10-22 10:01:00,
2013-10-22 04:06:00,40.2,32.9,30.15,East,79,0.0,0.0,75,0.00,,CLR,0.00,VWS V14.01,2013-10-22 10:06:00,
2013-10-22 04:11:00,40.3,32.7,30.15,East,79,0.0,0.0,74,0.00,,CLR,0.00,VWS V14.01,2013-10-22 10:11:00,
2013-10-22 04:16:00,40.2,32.6,30.15,East,79,0.0,0.0,74,0.00,,CLR,0.00,VWS V14.01,2013-10-22 10:16:00,
2013-10-22 04:21:00,39.9,32.6,30.15,East,79,0.0,0.0,75,0.00,,CLR,0.00,VWS V14.01,2013-10-22 10:21:00,
2013-10-22 04:26:00,40.1,33.2,30.15,East,79,0.0,0.0,76,0.00,,CLR,0.00,VWS V14.01,2013-10-22 10:26:00,
2013-10-22 04:31:00,40.2,32.9,30.15,East,79,0.0,0.0,75,0.00,,CLR,0.00,VWS V14.01,2013-10-22 10:31:00,
2013-10-22 04:36:00,40.3,32.7,30.14,East,79,0.0,0.0,74,0.00,,CLR,0.00,VWS V14.01,2013-10-22 10:36:00,
2013-10-22 04:42:00,40.3,33.0,30.14,East,79,0.0,0.0,75,0.00,,CLR,0.00,VWS V14.01,2013-10-22 10:42:00,
2013-10-22 04:47:00,40.3,33.0,30.14,East,79,0.0,0.0,75,0.00,,CLR,0.00,VWS V14.01,2013-10-22 10:47:00,
2013-10-22 04:52:00,40.5,33.2,30.14,East,79,0.0,0.0,75,0.00,,CLR,0.00,VWS V14.01,2013-10-22 10:52:00,
2013-10-22 04:57:00,40.3,32.7,30.14,East,79,0.0,0.0,74,0.00,,CLR,0.00,VWS V14.01,2013-10-22 10:57:00,
2013-10-22 05:02:00,40.3,33.0,30.14,East,79,0.0,0.0,75,0.00,,CLR,0.00,VWS V14.01,2013-10-22 11:02:00,
2013-10-22 05:07:00,40.3,33.0,30.14,East,79,0.0,0.0,75,0.00,,CLR,0.00,VWS V14.01,2013-10-22 11:07:00,
2013-10-22 05:12:00,40.3,32.7,30.14,East,79,0.0,0.0,74,0.00,,CLR,0.00,VWS V14.01,2013-10-22 11:12:00,
2013-10-22 05:17:00,40.2,32.6,30.14,East,79,0.0,0.0,74,0.00,,CLR,0.00,VWS V14.01,2013-10-22 11:17:00,
2013-10-22 05:22:00,40.2,32.9,30.16,East,79,0.0,0.0,75,0.00,,CLR,0.00,VWS V14.01,2013-10-22 11:22:00,
2013-10-22 05:27:00,40.2,32.9,30.16,East,79,0.0,0.0,75,0.00,,CLR,0.00,VWS V14.01,2013-10-22 11:27:00,
2013-10-22 05:32:00,40.3,33.0,30.16,East,79,0.0,0.0,75,0.00,,CLR,0.00,VWS V14.01,2013-10-22 11:32:00,
2013-10-22 05:37:00,40.3,32.7,30.16,East,79,0.0,0.0,74,0.00,,CLR,0.00,VWS V14.01,2013-10-22 11:37:00,
2013-10-22 05:42:00,40.1,32.5,30.16,East,79,0.0,0.0,74,0.00,,CLR,0.00,VWS V14.01,2013-10-22 11:42:00,
2013-10-22 05:47:00,39.8,32.2,30.16,East,79,0.0,0.0,74,0.00,,CLR,0.00,VWS V14.01,2013-10-22 11:47:00,
2013-10-22 05:52:00,39.6,32.3,30.16,East,79,0.0,0.0,75,0.00,,CLR,0.00,VWS V14.01,2013-10-22 11:52:00,
2013-10-22 05:58:00,39.5,32.2,30.16,East,79,0.0,0.0,75,0.00,,CLR,0.00,VWS V14.01,2013-10-22 11:58:00,
2013-10-22 06:03:00,39.5,32.6,30.16,East,79,0.0,0.0,76,0.00,,CLR,0.00,VWS V14.01,2013-10-22 12:03:00,
2013-10-22 06:08:00,39.6,32.3,30.16,East,79,0.0,0.0,75,0.00,,CLR,0.00,VWS V14.01,2013-10-22 12:08:00,
2013-10-22 06:13:00,39.6,32.0,30.16,East,79,0.0,0.0,74,0.00,,CLR,0.00,VWS V14.01,2013-10-22 12:13:00,
2013-10-22 06:18:00,39.6,32.3,30.16,East,79,0.0,0.0,75,0.00,,CLR,0.00,VWS V14.01,2013-10-22 12:18:00,
2013-10-22 06:23:00,39.6,32.3,30.18,East,79,0.0,0.0,75,0.00,,CLR,0.00,VWS V14.01,2013-10-22 12:23:00,
2013-10-22 06:28:00,39.8,32.5,30.18,East,79,0.0,0.0,75,0.00,,CLR,0.00,VWS V14.01,2013-10-22 12:28:00,
2013-10-22 06:33:00,39.6,32.3,30.18,East,79,0.0,0.0,75,0.00,,CLR,0.00,VWS V14.01,2013-10-22 12:33:00,
2013-10-22 06:38:00,39.5,32.2,30.19,East,79,0.0,0.0,75,0.00,,CLR,0.00,VWS V14.01,2013-10-22 12:38:00,
2013-10-22 06:43:00,39.3,32.0,30.19,East,79,0.0,0.0,75,0.00,,CLR,0.00,VWS V14.01,2013-10-22 12:43:00,
2013-10-22 06:48:00,39.1,31.9,30.19,East,79,0.0,0.0,75,0.00,,CLR,0.00,VWS V14.01,2013-10-22 12:48:00,
2013-10-22 06:53:00,38.8,31.6,30.18,East,79,0.0,0.0,75,0.00,,CLR,0.00,VWS V14.01,2013-10-22 12:53:00,
2013-10-22 06:59:00,38.3,31.4,30.18,East,79,0.0,0.0,76,0.00,,CLR,0.00,VWS V14.01,2013-10-22 12:59:00,
2013-10-22 07:04:00,38.2,31.3,30.18,East,79,0.0,0.0,76,0.00,,CLR,0.00,VWS V14.01,2013-10-22 13:04:00,
2013-10-22 07:09:00,38.2,31.6,30.19,East,79,0.0,0.0,77,0.00,,CLR,0.00,VWS V14.01,2013-10-22 13:09:00,
2013-10-22 07:15:00,38.3,31.7,30.19,East,79,0.0,0.0,77,0.00,,CLR,0.00,VWS V14.01,2013-10-22 13:15:00,
2013-10-22 07:20:00,38.5,31.6,30.19,East,79,0.0,0.0,76,0.00,,CLR,0.00,VWS V14.01,2013-10-22 13:20:00,
2013-10-22 07:25:00,38.5,31.6,30.19,East,79,0.0,0.0,76,0.00,,CLR,0.00,VWS V14.01,2013-10-22 13:25:00,
2013-10-22 07:30:00,38.8,31.6,30.19,East,79,0.0,0.0,75,0.00,,CLR,0.00,VWS V14.01,2013-10-22 13:30:00,
2013-10-22 07:35:00,38.8,31.6,30.19,East,79,0.0,2.0,75,0.00,,CLR,0.00,VWS V14.01,2013-10-22 13:35:00,
2013-10-22 07:40:00,38.8,31.6,30.19,East,79,0.0,0.0,75,0.00,,CLR,0.00,VWS V14.01,2013-10-22 13:40:00,
2013-10-22 07:45:00,38.6,31.4,30.19,East,79,0.0,0.0,75,0.00,,CLR,0.00,VWS V14.01,2013-10-22 13:45:00,
2013-10-22 07:50:00,38.8,31.6,30.19,South,173,0.0,3.0,75,0.00,,CLR,0.00,VWS V14.01,2013-10-22 13:50:00,
2013-10-22 07:55:00,38.8,31.9,30.19,South,173,0.0,0.0,76,0.00,,CLR,0.00,VWS V14.01,2013-10-22 13:55:00,
2013-10-22 08:00:00,38.8,31.2,30.19,South,173,0.0,0.0,74,0.00,,CLR,0.00,VWS V14.01,2013-10-22 14:00:00,
2013-10-22 08:05:00,38.3,31.1,30.20,South,173,0.0,0.0,75,0.00,,CLR,0.00,VWS V14.01,2013-10-22 14:05:00,
2013-10-22 08:10:00,38.0,30.8,30.20,South,173,0.0,0.0,75,0.00,,CLR,0.00,VWS V14.01,2013-10-22 14:10:00,
2013-10-22 08:15:00,37.8,30.9,30.20,South,173,0.0,0.0,76,0.00,,CLR,0.00,VWS V14.01,2013-10-22 14:15:00,
2013-10-22 08:21:00,37.6,30.7,30.20,South,173,0.0,0.0,76,0.00,,CLR,0.00,VWS V14.01,2013-10-22 14:21:00,
2013-10-22 08:26:00,37.6,31.4,30.20,South,173,0.0,0.0,78,0.00,,CLR,0.00,VWS V14.01,2013-10-22 14:26:00,
2013-10-22 08:31:00,37.6,31.4,30.20,South,173,0.0,0.0,78,0.00,,CLR,0.00,VWS V14.01,2013-10-22 14:31:00,
2013-10-22 08:36:00,37.9,31.4,30.20,South,173,0.0,0.0,77,0.00,,CLR,0.00,VWS V14.01,2013-10-22 14:36:00,
2013-10-22 08:41:00,38.0,31.4,30.20,South,173,0.0,0.0,77,0.00,,CLR,0.00,VWS V14.01,2013-10-22 14:41:00,
2013-10-22 08:46:00,38.2,31.3,30.20,South,173,0.0,0.0,76,0.00,,CLR,0.00,VWS V14.01,2013-10-22 14:46:00,
2013-10-22 08:51:00,38.3,31.4,30.22,South,173,0.0,0.0,76,0.00,,CLR,0.00,VWS V14.01,2013-10-22 14:51:00,
2013-10-22 08:56:00,38.5,31.6,30.22,South,173,0.0,0.0,76,0.00,,CLR,0.00,VWS V14.01,2013-10-22 14:56:00,
2013-10-22 09:01:00,38.3,31.4,30.22,South,173,0.0,0.0,76,0.00,,CLR,0.00,VWS V14.01,2013-10-22 15:01:00,
2013-10-22 09:06:00,38.5,32.2,30.22,South,173,0.0,0.0,78,0.00,,CLR,0.00,VWS V14.01,2013-10-22 15:06:00,
2013-10-22 09:11:00,38.3,31.7,30.22,South,173,0.0,0.0,77,0.00,,CLR,0.00,VWS V14.01,2013-10-22 15:11:00,
2013-10-22 09:16:00,38.6,32.0,30.22,South,173,0.0,0.0,77,0.00,,CLR,0.00,VWS V14.01,2013-10-22 15:16:00,
2013-10-22 09:21:00,38.8,31.9,30.21,South,173,0.0,0.0,76,0.00,,CLR,0.00,VWS V14.01,2013-10-22 15:21:00,
2013-10-22 09:27:00,38.6,32.0,30.21,South,173,0.0,0.0,77,0.00,,CLR,0.00,VWS V14.01,2013-10-22 15:27:00,
2013-10-22 09:32:00,38.6,31.7,30.21,South,189,0.0,2.0,76,0.00,,CLR,0.00,VWS V14.01,2013-10-22 15:32:00,
2013-10-22 09:37:00,39.3,31.7,30.21,South,189,0.0,0.0,74,0.00,,CLR,0.00,VWS V14.01,2013-10-22 15:37:00,
2013-10-22 09:42:00,39.5,32.2,30.21,South,189,0.0,0.0,75,0.00,,CLR,0.00,VWS V14.01,2013-10-22 15:42:00,
2013-10-22 09:47:00,39.6,32.3,30.21,South,189,0.0,0.0,75,0.00,,CLR,0.00,VWS V14.01,2013-10-22 15:47:00,
2013-10-22 09:52:00,39.8,32.9,30.20,South,189,0.0,0.0,76,0.00,,CLR,0.00,VWS V14.01,2013-10-22 15:52:00,
2013-10-22 09:57:00,39.9,33.0,30.20,South,189,0.0,0.0,76,0.00,,CLR,0.00,VWS V14.01,2013-10-22 15:57:00,
2013-10-22 10:02:00,39.9,33.3,30.20,South,189,0.0,0.0,77,0.00,,CLR,0.00,VWS V14.01,2013-10-22 16:02:00,
2013-10-22 10:07:00,39.9,33.0,30.20,South,189,0.0,0.0,76,0.00,,CLR,0.00,VWS V14.01,2013-10-22 16:07:00,
2013-10-22 10:13:00,40.5,32.5,30.20,South,189,0.0,0.0,73,0.00,,CLR,0.00,VWS V14.01,2013-10-22 16:13:00,
2013-10-22 10:18:00,41.1,33.1,30.20,South,189,0.0,0.0,73,0.00,,CLR,0.00,VWS V14.01,2013-10-22 16:18:00,
2013-10-22 10:23:00,41.3,33.3,30.19,South,189,0.0,0.0,73,0.00,,CLR,0.00,VWS V14.01,2013-10-22 16:23:00,
2013-10-22 10:28:00,41.6,33.3,30.19,South,189,0.0,0.0,72,0.00,,CLR,0.00,VWS V14.01,2013-10-22 16:28:00,
2013-10-22 10:34:00,41.8,33.5,30.19,South,189,0.0,0.0,72,0.00,,CLR,0.00,VWS V14.01,2013-10-22 16:34:00,
2013-10-22 10:39:00,41.9,33.5,30.20,South,189,0.0,0.0,72,0.00,,CLR,0.00,VWS V14.01,2013-10-22 16:39:00,
2013-10-22 10:44:00,42.2,33.1,30.20,North,355,0.0,3.0,70,0.00,,CLR,0.00,VWS V14.01,2013-10-22 16:44:00,
2013-10-22 10:49:00,42.3,32.9,30.20,North,360,0.0,1.0,69,0.00,,CLR,0.00,VWS V14.01,2013-10-22 16:49:00,
2013-10-22 10:54:00,42.6,33.2,30.20,North,360,0.0,0.0,69,0.00,,CLR,0.00,VWS V14.01,2013-10-22 16:54:00,
2013-10-22 10:59:00,42.9,33.4,30.20,North,360,0.0,0.0,69,0.00,,CLR,0.00,VWS V14.01,2013-10-22 16:59:00,
2013-10-22 11:04:00,43.1,33.6,30.20,North,360,0.0,0.0,69,0.00,,CLR,0.00,VWS V14.01,2013-10-22 17:04:00,
2013-10-22 11:09:00,43.2,33.7,30.18,North,360,0.0,0.0,69,0.00,,CLR,0.00,VWS V14.01,2013-10-22 17:09:00,
2013-10-22 11:14:00,43.5,33.3,30.18,North,360,0.0,0.0,67,0.00,,CLR,0.00,VWS V14.01,2013-10-22 17:14:00,
2013-10-22 11:20:00,44.2,33.6,30.18,North,360,0.0,0.0,66,0.00,,CLR,0.00,VWS V14.01,2013-10-22 17:20:00,
2013-10-22 11:25:00,44.6,34.7,30.17,North,360,0.0,0.0,68,0.00,,CLR,0.00,VWS V14.01,2013-10-22 17:25:00,
2013-10-22 11:30:00,44.8,34.5,30.17,North,360,0.0,0.0,67,0.00,,CLR,0.00,VWS V14.01,2013-10-22 17:30:00,
2013-10-22 11:35:00,45.2,34.9,30.16,North,360,0.0,0.0,67,0.00,,CLR,0.00,VWS V14.01,2013-10-22 17:35:00,
2013-10-22 11:40:00,45.7,35.0,30.16,North,360,0.0,0.0,66,0.00,,CLR,0.00,VWS V14.01,2013-10-22 17:40:00,
2013-10-22 11:45:00,46.2,34.7,30.16,North,351,0.0,1.0,64,0.00,,CLR,0.00,VWS V14.01,2013-10-22 17:45:00,
2013-10-22 11:50:00,47.0,35.9,30.14,North,351,0.0,0.0,65,0.00,,CLR,0.00,VWS V14.01,2013-10-22 17:50:00,
2013-10-22 11:55:00,47.1,36.0,30.14,North,351,0.0,0.0,65,0.00,,CLR,0.00,VWS V14.01,2013-10-22 17:55:00,
2013-10-22 12:01:00,47.6,35.6,30.14,North,355,0.0,0.0,63,0.00,,CLR,0.00,VWS V14.01,2013-10-22 18:01:00,
2013-10-22 12:06:00,48.0,36.0,30.14,North,355,0.0,0.0,63,0.00,,CLR,0.00,VWS V14.01,2013-10-22 18:06:00,
2013-10-22 12:11:00,48.2,36.2,30.14,North,11,2.0,2.0,63,0.00,,CLR,0.00,VWS V14.01,2013-10-22 18:11:00,
2013-10-22 12:16:00,48.3,35.9,30.14,North,11,0.0,2.0,62,0.00,,CLR,0.00,VWS V14.01,2013-10-22 18:16:00,
2013-10-22 12:21:00,48.8,36.0,30.14,WSW,240,1.0,5.0,61,0.00,,CLR,0.00,VWS V14.01,2013-10-22 18:21:00,
2013-10-22 12:26:00,49.2,35.9,30.14,SW,218,1.0,1.0,60,0.00,,CLR,0.00,VWS V14.01,2013-10-22 18:26:00,
2013-10-22 12:31:00,49.5,35.3,30.14,WSW,249,3.0,4.0,58,0.00,,CLR,0.00,VWS V14.01,2013-10-22 18:31:00,
2013-10-22 12:36:00,50.1,35.5,30.12,WSW,237,0.0,3.0,57,0.00,,CLR,0.00,VWS V14.01,2013-10-22 18:36:00,
2013-10-22 12:41:00,50.2,35.1,30.12,WSW,238,0.0,0.0,56,0.00,,CLR,0.00,VWS V14.01,2013-10-22 18:41:00,
2013-10-22 12:46:00,50.7,35.6,30.12,WSW,239,0.0,0.0,56,0.00,,CLR,0.00,VWS V14.01,2013-10-22 18:46:00,
2013-10-22 12:51:00,50.7,36.0,30.12,WSW,239,0.0,0.0,57,0.00,,CLR,0.00,VWS V14.01,2013-10-22 18:51:00,
2013-10-22 12:56:00,50.7,34.7,30.12,WSW,239,0.0,1.0,54,0.00,,CLR,0.00,VWS V14.01,2013-10-22 18:56:00,
2013-10-22 13:01:00,50.8,34.8,30.12,NNW,346,0.0,0.0,54,0.00,,CLR,0.00,VWS V14.01,2013-10-22 19:01:00,
2013-10-22 13:06:00,51.0,35.0,30.11,NNW,345,0.0,0.0,54,0.00,,CLR,0.00,VWS V14.01,2013-10-22 19:06:00,
2013-10-22 13:11:00,51.0,34.0,30.11,NNW,345,0.0,0.0,52,0.00,,CLR,0.00,VWS V14.01,2013-10-22 19:11:00,
2013-10-22 13:16:00,51.1,34.6,30.11,NNW,345,0.0,0.0,53,0.00,,CLR,0.00,VWS V14.01,2013-10-22 19:16:00,
2013-10-22 13:21:00,51.4,34.4,30.10,NNW,345,0.0,0.0,52,0.00,,CLR,0.00,VWS V14.01,2013-10-22 19:21:00,
2013-10-22 13:26:00,51.6,34.1,30.10,NNW,345,0.0,0.0,51,0.00,,CLR,0.00,VWS V14.01,2013-10-22 19:26:00,
2013-10-22 13:31:00,51.9,34.4,30.10,NNW,344,0.0,0.0,51,0.00,,CLR,0.00,VWS V14.01,2013-10-22 19:31:00,
2013-10-22 13:37:00,52.2,34.6,30.10,SSE,147,0.0,0.0,51,0.00,,CLR,0.00,VWS V14.01,2013-10-22 19:37:00,
2013-10-22 13:42:00,52.5,32.9,30.10,SSE,147,0.0,0.0,47,0.00,,CLR,0.00,VWS V14.01,2013-10-22 19:42:00,
2013-10-22 13:47:00,52.8,34.2,30.10,SSE,147,0.0,0.0,49,0.00,,CLR,0.00,VWS V14.01,2013-10-22 19:47:00,
2013-10-22 13:52:00,53.5,32.7,30.09,West,260,0.0,1.0,45,0.00,,CLR,0.00,VWS V14.01,2013-10-22 19:52:00,
2013-10-22 13:57:00,54.2,32.2,30.09,West,262,0.0,0.0,43,0.00,,CLR,0.00,VWS V14.01,2013-10-22 19:57:00,
2013-10-22 14:02:00,54.5,33.6,30.09,West,262,0.0,0.0,45,0.00,,CLR,0.00,VWS V14.01,2013-10-22 20:02:00,
2013-10-22 14:07:00,54.4,34.1,30.08,West,263,0.0,0.0,46,0.00,,CLR,0.00,VWS V14.01,2013-10-22 20:07:00,
2013-10-22 14:12:00,54.5,31.3,30.08,SW,232,0.0,3.0,41,0.00,,CLR,0.00,VWS V14.01,2013-10-22 20:12:00,
2013-10-22 14:18:00,54.8,31.6,30.08,WSW,247,0.0,1.0,41,0.00,,CLR,0.00,VWS V14.01,2013-10-22 20:18:00,
2013-10-22 14:23:00,55.4,31.5,30.08,WSW,245,0.0,2.0,40,0.00,,CLR,0.00,VWS V14.01,2013-10-22 20:23:00,
2013-10-22 14:28:00,55.4,33.3,30.08,WSW,245,0.0,0.0,43,0.00,,CLR,0.00,VWS V14.01,2013-10-22 20:28:00,
2013-10-22 14:33:00,55.1,33.0,30.08,WSW,245,0.0,0.0,43,0.00,,CLR,0.00,VWS V14.01,2013-10-22 20:33:00,
2013-10-22 14:38:00,54.8,33.3,30.08,WSW,245,0.0,0.0,44,0.00,,CLR,0.00,VWS V14.01,2013-10-22 20:38:00,
2013-10-22 14:43:00,54.7,32.7,30.08,WSW,245,0.0,1.0,43,0.00,,CLR,0.00,VWS V14.01,2013-10-22 20:43:00,
2013-10-22 14:48:00,54.7,30.9,30.08,WSW,245,0.0,0.0,40,0.00,,CLR,0.00,VWS V14.01,2013-10-22 20:48:00,
2013-10-22 14:53:00,55.0,31.8,30.08,WSW,245,0.0,0.0,41,0.00,,CLR,0.00,VWS V14.01,2013-10-22 20:53:00,
2013-10-22 14:58:00,55.1,29.3,30.08,WSW,252,0.0,4.0,37,0.00,,CLR,0.00,VWS V14.01,2013-10-22 20:58:00,
2013-10-22 15:03:00,55.7,30.5,30.08,SW,215,0.0,1.0,38,0.00,,CLR,0.00,VWS V14.01,2013-10-22 21:03:00,
2013-10-22 15:09:00,56.2,30.3,30.08,SW,215,0.0,2.0,37,0.00,,CLR,0.00,VWS V14.01,2013-10-22 21:09:00,
2013-10-22 15:14:00,56.3,31.0,30.08,WSW,237,0.0,0.0,38,0.00,,CLR,0.00,VWS V14.01,2013-10-22 21:14:00,
2013-10-22 15:19:00,56.5,29.9,30.08,West,265,0.0,1.0,36,0.00,,CLR,0.00,VWS V14.01,2013-10-22 21:19:00,
2013-10-22 15:24:00,56.5,29.9,30.08,WNW,288,0.0,1.0,36,0.00,,CLR,0.00,VWS V14.01,2013-10-22 21:24:00,
2013-10-22 15:29:00,56.3,31.7,30.08,WNW,288,0.0,0.0,39,0.00,,CLR,0.00,VWS V14.01,2013-10-22 21:29:00,
2013-10-22 15:34:00,56.0,32.7,30.08,WSW,246,0.0,4.0,41,0.00,,CLR,0.00,VWS V14.01,2013-10-22 21:34:00,
2013-10-22 15:39:00,56.2,29.6,30.08,SW,232,0.0,2.0,36,0.00,,CLR,0.00,VWS V14.01,2013-10-22 21:39:00,
2013-10-22 15:44:00,56.2,28.9,30.08,SW,232,0.0,1.0,35,0.00,,CLR,0.00,VWS V14.01,2013-10-22 21:44:00,
2013-10-22 15:50:00,56.2,29.6,30.08,SW,229,0.0,1.0,36,0.00,,CLR,0.00,VWS V14.01,2013-10-22 21:50:00,
2013-10-22 15:55:00,56.3,28.3,30.08,SW,223,0.0,2.0,34,0.00,,CLR,0.00,VWS V14.01,2013-10-22 21:55:00,
2013-10-22 16:00:00,56.5,27.0,30.08,SW,217,0.0,1.0,32,0.00,,CLR,0.00,VWS V14.01,2013-10-22 22:00:00,
2013-10-22 16:05:00,56.5,26.2,30.08,NW,323,0.0,3.0,31,0.00,,CLR,0.00,VWS V14.01,2013-10-22 22:05:00,
2013-10-22 16:10:00,56.6,23.9,30.08,East,86,1.0,3.0,28,0.00,,CLR,0.00,VWS V14.01,2013-10-22 22:10:00,
2013-10-22 16:15:00,56.7,23.1,30.08,NNE,15,7.0,7.0,27,0.00,,CLR,0.00,VWS V14.01,2013-10-22 22:15:00,
2013-10-22 16:20:00,57.2,24.4,30.08,WSW,246,0.0,2.0,28,0.00,,CLR,0.00,VWS V14.01,2013-10-22 22:20:00,
2013-10-22 16:25:00,57.6,24.8,30.08,NE,39,0.0,1.0,28,0.00,,CLR,0.00,VWS V14.01,2013-10-22 22:25:00,
2013-10-22 16:31:00,57.6,24.8,30.08,West,269,0.0,1.0,28,0.00,,CLR,0.00,VWS V14.01,2013-10-22 22:31:00,
2013-10-22 16:36:00,57.3,23.6,30.07,West,267,0.0,0.0,27,0.00,,CLR,0.00,VWS V14.01,2013-10-22 22:36:00,
2013-10-22 16:41:00,57.3,23.6,30.07,West,265,0.0,1.0,27,0.00,,CLR,0.00,VWS V14.01,2013-10-22 22:41:00,
2013-10-22 16:46:00,57.0,27.5,30.07,West,265,0.0,0.0,32,0.00,,CLR,0.00,VWS V14.01,2013-10-22 22:46:00,
2013-10-22 16:51:00,56.6,25.5,30.08,NNE,13,0.0,0.0,30,0.00,,CLR,0.00,VWS V14.01,2013-10-22 22:51:00,
2013-10-22 16:56:00,56.2,28.2,30.08,NNE,13,0.0,0.0,34,0.00,,CLR,0.00,VWS V14.01,2013-10-22 22:56:00,
2013-10-22 17:01:00,55.9,27.2,30.08,NNE,13,0.0,0.0,33,0.00,,CLR,0.00,VWS V14.01,2013-10-22 23:01:00,
2013-10-22 17:07:00,55.6,26.2,30.08,North,9,0.0,0.0,32,0.00,,CLR,0.00,VWS V14.01,2013-10-22 23:07:00,
2013-10-22 17:12:00,55.4,26.0,30.08,North,9,0.0,0.0,32,0.00,,CLR,0.00,VWS V14.01,2013-10-22 23:12:00,
2013-10-22 17:17:00,55.1,27.3,30.08,North,9,0.0,0.0,34,0.00,,CLR,0.00,VWS V14.01,2013-10-22 23:17:00,
2013-10-22 17:22:00,54.7,27.6,30.09,North,9,0.0,0.0,35,0.00,,CLR,0.00,VWS V14.01,2013-10-22 23:22:00,
2013-10-22 17:27:00,54.5,26.7,30.09,North,9,0.0,0.0,34,0.00,,CLR,0.00,VWS V14.01,2013-10-22 23:27:00,
2013-10-22 17:32:00,54.2,27.9,30.09,North,9,0.0,0.0,36,0.00,,CLR,0.00,VWS V14.01,2013-10-22 23:32:00,
2013-10-22 17:37:00,53.9,27.6,30.08,North,9,0.0,0.0,36,0.00,,CLR,0.00,VWS V14.01,2013-10-22 23:37:00,
2013-10-22 17:43:00,53.8,28.2,30.08,North,9,0.0,0.0,37,0.00,,CLR,0.00,VWS V14.01,2013-10-22 23:43:00,
2013-10-22 17:48:00,53.8,28.2,30.08,North,9,0.0,0.0,37,0.00,,CLR,0.00,VWS V14.01,2013-10-22 23:48:00,
2013-10-22 17:53:00,53.5,27.9,30.08,North,9,0.0,0.0,37,0.00,,CLR,0.00,VWS V14.01,2013-10-22 23:53:00,
2013-10-22 17:58:00,53.2,28.3,30.08,North,9,0.0,0.0,38,0.00,,CLR,0.00,VWS V14.01,2013-10-22 23:58:00,
2013-10-22 18:03:00,52.9,28.6,30.08,North,9,0.0,0.0,39,0.00,,CLR,0.00,VWS V14.01,2013-10-23 00:03:00,
2013-10-22 18:08:00,52.5,29.5,30.08,North,9,0.0,0.0,41,0.00,,CLR,0.00,VWS V14.01,2013-10-23 00:08:00,
2013-10-22 18:13:00,51.9,29.5,30.08,North,9,0.0,0.0,42,0.00,,CLR,0.00,VWS V14.01,2013-10-23 00:13:00,
2013-10-22 18:18:00,51.1,29.4,30.08,North,9,0.0,0.0,43,0.00,,CLR,0.00,VWS V14.01,2013-10-23 00:18:00,
2013-10-22 18:23:00,50.5,29.4,30.11,North,9,0.0,0.0,44,0.00,,CLR,0.00,VWS V14.01,2013-10-23 00:23:00,
2013-10-22 18:28:00,49.9,29.4,30.11,North,9,0.0,0.0,45,0.00,,CLR,0.00,VWS V14.01,2013-10-23 00:28:00,
2013-10-22 18:33:00,49.5,29.6,30.11,North,9,0.0,0.0,46,0.00,,CLR,0.00,VWS V14.01,2013-10-23 00:33:00,
2013-10-22 18:39:00,49.2,29.3,30.12,North,9,0.0,0.0,46,0.00,,CLR,0.00,VWS V14.01,2013-10-23 00:39:00,
2013-10-22 18:44:00,48.8,29.5,30.12,North,9,0.0,0.0,47,0.00,,CLR,0.00,VWS V14.01,2013-10-23 00:44:00,
2013-10-22 18:49:00,48.2,28.9,30.12,North,9,0.0,0.0,47,0.00,,CLR,0.00,VWS V14.01,2013-10-23 00:49:00,
2013-10-22 18:54:00,47.9,28.7,30.12,North,9,0.0,0.0,47,0.00,,CLR,0.00,VWS V14.01,2013-10-23 00:54:00,
2013-10-22 18:59:00,47.7,28.5,30.12,North,9,0.0,0.0,47,0.00,,CLR,0.00,VWS V14.01,2013-10-23 00:59:00,
2013-10-22 19:04:00,47.6,28.4,30.12,North,9,0.0,0.0,47,0.00,,CLR,0.00,VWS V14.01,2013-10-23 01:04:00,
2013-10-22 19:09:00,47.9,28.7,30.13,North,9,0.0,0.0,47,0.00,,CLR,0.00,VWS V14.01,2013-10-23 01:09:00,
2013-10-22 19:14:00,47.9,28.1,30.13,North,9,0.0,0.0,46,0.00,,CLR,0.00,VWS V14.01,2013-10-23 01:14:00,
2013-10-22 19:19:00,47.9,28.1,30.13,North,9,0.0,0.0,46,0.00,,CLR,0.00,VWS V14.01,2013-10-23 01:19:00,
2013-10-22 19:24:00,47.7,28.5,30.13,North,9,0.0,0.0,47,0.00,,CLR,0.00,VWS V14.01,2013-10-23 01:24:00,
2013-10-22 19:29:00,47.4,28.2,30.13,North,9,0.0,0.0,47,0.00,,CLR,0.00,VWS V14.01,2013-10-23 01:29:00,
2013-10-22 19:34:00,47.1,27.9,30.13,North,9,0.0,0.0,47,0.00,,CLR,0.00,VWS V14.01,2013-10-23 01:34:00,
2013-10-22 19:39:00,46.8,27.6,30.14,North,9,0.0,0.0,47,0.00,,CLR,0.00,VWS V14.01,2013-10-23 01:39:00,
2013-10-22 19:44:00,46.5,27.4,30.14,North,9,0.0,0.0,47,0.00,,CLR,0.00,VWS V14.01,2013-10-23 01:44:00,
2013-10-22 19:49:00,46.4,26.8,30.14,North,9,0.0,0.0,46,0.00,,CLR,0.00,VWS V14.01,2013-10-23 01:49:00,
2013-10-22 19:55:00,46.2,26.6,30.14,North,9,0.0,0.0,46,0.00,,CLR,0.00,VWS V14.01,2013-10-23 01:55:00,
2013-10-22 20:00:00,46.2,26.6,30.14,North,9,0.0,0.0,46,0.00,,CLR,0.00,VWS V14.01,2013-10-23 02:00:00,
2013-10-22 20:05:00,46.1,26.5,30.14,North,9,0.0,0.0,46,0.00,,CLR,0.00,VWS V14.01,2013-10-23 02:05:00,
2013-10-22 20:10:00,46.1,26.5,30.14,North,9,0.0,0.0,46,0.00,,CLR,0.00,VWS V14.01,2013-10-23 02:10:00,
2013-10-22 20:15:00,46.1,26.5,30.14,North,9,0.0,0.0,46,0.00,,CLR,0.00,VWS V14.01,2013-10-23 02:15:00,
2013-10-22 20:20:00,46.0,26.4,30.14,North,9,0.0,0.0,46,0.00,,CLR,0.00,VWS V14.01,2013-10-23 02:20:00,
2013-10-22 20:25:00,46.0,26.4,30.14,North,9,0.0,0.0,46,0.00,,CLR,0.00,VWS V14.01,2013-10-23 02:25:00,
2013-10-22 20:30:00,46.0,26.9,30.14,North,9,0.0,0.0,47,0.00,,CLR,0.00,VWS V14.01,2013-10-23 02:30:00,
2013-10-22 20:35:00,46.0,26.9,30.15,North,9,0.0,0.0,47,0.00,,CLR,0.00,VWS V14.01,2013-10-23 02:35:00,
2013-10-22 20:40:00,46.0,26.4,30.15,North,9,0.0,0.0,46,0.00,,CLR,0.00,VWS V14.01,2013-10-23 02:40:00,
2013-10-22 20:45:00,46.0,26.9,30.15,North,9,0.0,0.0,47,0.00,,CLR,0.00,VWS V14.01,2013-10-23 02:45:00,
2013-10-22 20:50:00,46.1,27.0,30.15,North,9,0.0,0.0,47,0.00,,CLR,0.00,VWS V14.01,2013-10-23 02:50:00,
2013-10-22 20:55:00,46.1,26.5,30.15,North,9,0.0,0.0,46,0.00,,CLR,0.00,VWS V14.01,2013-10-23 02:55:00,
2013-10-22 21:00:00,46.1,26.5,30.15,North,9,0.0,0.0,46,0.00,,CLR,0.00,VWS V14.01,2013-10-23 03:00:00,
2013-10-22 21:05:00,45.8,27.2,30.15,North,9,0.0,0.0,48,0.00,,CLR,0.00,VWS V14.01,2013-10-23 03:05:00,
2013-10-22 21:11:00,45.5,27.0,30.15,North,9,0.0,0.0,48,0.00,,CLR,0.00,VWS V14.01,2013-10-23 03:11:00,
2013-10-22 21:16:00,45.4,27.4,30.15,North,9,0.0,0.0,49,0.00,,CLR,0.00,VWS V14.01,2013-10-23 03:16:00,
2013-10-22 21:21:00,45.2,26.7,30.15,North,9,0.0,0.0,48,0.00,,CLR,0.00,VWS V14.01,2013-10-23 03:21:00,
2013-10-22 21:26:00,45.2,27.2,30.15,North,9,0.0,1.0,49,0.00,,CLR,0.00,VWS V14.01,2013-10-23 03:26:00,
2013-10-22 21:31:00,45.1,27.1,30.15,North,9,0.0,0.0,49,0.00,,CLR,0.00,VWS V14.01,2013-10-23 03:31:00,
2013-10-22 21:36:00,44.8,26.8,30.15,North,9,0.0,0.0,49,0.00,,CLR,0.00,VWS V14.01,2013-10-23 03:36:00,
2013-10-22 21:41:00,44.6,27.1,30.15,North,9,0.0,0.0,50,0.00,,CLR,0.00,VWS V14.01,2013-10-23 03:41:00,
2013-10-22 21:46:00,44.6,27.1,30.15,East,84,0.0,1.0,50,0.00,,CLR,0.00,VWS V14.01,2013-10-23 03:46:00,
2013-10-22 21:51:00,44.6,27.6,30.16,East,84,0.0,0.0,51,0.00,,CLR,0.00,VWS V14.01,2013-10-23 03:51:00,
2013-10-22 21:56:00,44.5,27.5,30.16,East,84,0.0,0.0,51,0.00,,CLR,0.00,VWS V14.01,2013-10-23 03:56:00,
2013-10-22 22:01:00,44.5,27.5,30.16,East,84,0.0,0.0,51,0.00,,CLR,0.00,VWS V14.01,2013-10-23 04:01:00,
2013-10-22 22:02:00,44.5,27.5,30.16,East,84,0.0,0.0,51,0.00,,CLR,0.00,VWS V14.01,2013-10-23 04:02:00,
2013-10-22 22:05:00,44.5,27.5,30.16,East,84,0.0,0.0,51,0.00,,CLR,0.00,VWS V14.01,2013-10-23 04:05:00,
2013-10-22 22:09:00,44.3,27.3,30.16,East,84,0.0,0.0,51,0.00,,CLR,0.00,VWS V14.01,2013-10-23 04:09:00,
2013-10-22 22:14:00,44.3,28.3,30.16,East,84,0.0,0.0,53,0.00,,CLR,0.00,VWS V14.01,2013-10-23 04:14:00,
2013-10-22 22:19:00,44.5,28.5,30.16,East,84,0.0,0.0,53,0.00,,CLR,0.00,VWS V14.01,2013-10-23 04:19:00,
2013-10-22 22:24:00,44.5,28.5,30.14,East,84,0.0,0.0,53,0.00,,CLR,0.00,VWS V14.01,2013-10-23 04:24:00,
2013-10-22 22:29:00,44.5,28.5,30.14,East,84,0.0,0.0,53,0.00,,CLR,0.00,VWS V14.01,2013-10-23 04:29:00,
2013-10-22 22:34:00,44.5,28.0,30.14,East,84,0.0,0.0,52,0.00,,CLR,0.00,VWS V14.01,2013-10-23 04:34:00,
2013-10-22 22:39:00,44.2,28.2,30.15,East,84,0.0,0.0,53,0.00,,CLR,0.00,VWS V14.01,2013-10-23 04:39:00,
2013-10-22 22:44:00,44.1,28.1,30.15,East,84,0.0,0.0,53,0.00,,CLR,0.00,VWS V14.01,2013-10-23 04:44:00,
2013-10-22 22:50:00,43.9,27.9,30.15,East,84,0.0,0.0,53,0.00,,CLR,0.00,VWS V14.01,2013-10-23 04:50:00,
2013-10-22 22:55:00,44.1,28.1,30.15,East,84,0.0,0.0,53,0.00,,CLR,0.00,VWS V14.01,2013-10-23 04:55:00,
2013-10-22 23:00:00,44.2,27.7,30.15,East,84,0.0,0.0,52,0.00,,CLR,0.00,VWS V14.01,2013-10-23 05:00:00,
2013-10-22 23:05:00,44.2,27.2,30.15,East,84,0.0,0.0,51,0.00,,CLR,0.00,VWS V14.01,2013-10-23 05:05:00,
2013-10-22 23:10:00,44.1,27.1,30.16,East,84,0.0,0.0,51,0.00,,CLR,0.00,VWS V14.01,2013-10-23 05:10:00,
2013-10-22 23:15:00,44.1,27.1,30.16,East,84,0.0,0.0,51,0.00,,CLR,0.00,VWS V14.01,2013-10-23 05:15:00,
2013-10-22 23:20:00,43.9,27.0,30.16,East,84,0.0,0.0,51,0.00,,CLR,0.00,VWS V14.01,2013-10-23 05:20:00,
2013-10-22 23:25:00,43.8,26.9,30.13,East,84,0.0,0.0,51,0.00,,CLR,0.00,VWS V14.01,2013-10-23 05:25:00,
2013-10-22 23:30:00,43.8,27.3,30.13,East,84,0.0,0.0,52,0.00,,CLR,0.00,VWS V14.01,2013-10-23 05:30:00,
2013-10-22 23:35:00,43.8,27.3,30.13,East,84,0.0,0.0,52,0.00,,CLR,0.00,VWS V14.01,2013-10-23 05:35:00,
2013-10-22 23:40:00,43.8,26.9,30.13,East,84,0.0,0.0,51,0.00,,CLR,0.00,VWS V14.01,2013-10-23 05:40:00,
2013-10-22 23:45:00,43.9,27.0,30.13,East,84,0.0,0.0,51,0.00,,CLR,0.00,VWS V14.01,2013-10-23 05:45:00,
2013-10-22 23:50:00,43.9,27.0,30.13,East,84,0.0,0.0,51,0.00,,CLR,0.00,VWS V14.01,2013-10-23 05:50:00,
2013-10-22 23:55:00,43.9,27.0,30.13,East,84,0.0,0.0,51,0.00,,CLR,0.00,VWS V14.01,2013-10-23 05:55:00,